Time,TemperatureF,DewpointF,PressureIn,WindDirection,WindDirectionDegrees,WindSpeedMPH,WindSpeedGustMPH,Humidity,HourlyPrecipIn,Conditions,Clouds,dailyrainin,SoftwareType,DateUTC
2013-05-06 00:00:00,59.2,45.9,29.83,SSE,151,0.0,0.0,61,0.00,,,0.00,WUHU216WMR968SP,2013-05-06 07:00:00,
2013-05-06 00:05:00,59.4,45.6,29.83,ESE,110,0.0,0.0,60,0.00,,,0.00,WUHU216WMR968SP,2013-05-06 07:05:00,
2013-05-06 00:10:00,59.5,45.7,29.83,East,96,0.0,0.0,60,0.00,,,0.00,WUHU216WMR968SP,2013-05-06 07:10:00,
2013-05-06 00:15:00,59.7,45.5,29.83,ENE,64,0.0,0.0,59,0.00,,,0.00,WUHU216WMR968SP,2013-05-06 07:15:00,
2013-05-06 00:20:00,59.7,45.5,29.83,ESE,115,0.0,0.0,59,0.00,,,0.00,WUHU216WMR968SP,2013-05-06 07:20:00,
2013-05-06 00:25:00,59.7,45.9,29.86,SSW,208,0.0,0.0,60,0.00,,,0.00,WUHU216WMR968SP,2013-05-06 07:25:00,
2013-05-06 00:30:00,59.7,45.9,29.86,ESE,121,0.0,0.0,60,0.00,,,0.00,WUHU216WMR968SP,2013-05-06 07:30:00,
2013-05-06 00:35:00,59.5,46.6,29.86,East,92,0.0,0.0,62,0.00,,,0.00,WUHU216WMR968SP,2013-05-06 07:35:00,
2013-05-06 00:40:00,59.2,46.7,29.86,ENE,66,0.0,0.0,63,0.00,,,0.00,WUHU216WMR968SP,2013-05-06 07:40:00,
2013-05-06 00:45:00,58.8,47.2,29.86,East,82,0.0,0.0,65,0.00,,,0.00,WUHU216WMR968SP,2013-05-06 07:45:00,
2013-05-06 00:50:00,58.5,46.9,29.86,ENE,73,0.0,0.0,65,0.00,,,0.00,WUHU216WMR968SP,2013-05-06 07:50:00,
2013-05-06 00:55:00,58.1,46.9,29.86,East,101,0.0,0.0,66,0.00,,,0.00,WUHU216WMR968SP,2013-05-06 07:55:00,
2013-05-06 01:00:00,57.7,46.6,29.86,ENE,72,0.0,0.0,66,0.00,,,0.00,WUHU216WMR968SP,2013-05-06 08:00:00,
2013-05-06 01:05:00,57.6,46.9,29.86,NE,52,0.0,0.0,67,0.00,,,0.00,WUHU216WMR968SP,2013-05-06 08:05:00,
2013-05-06 01:10:00,57.4,46.7,29.83,ENE,71,0.0,0.0,67,0.00,,,0.00,WUHU216WMR968SP,2013-05-06 08:10:00,
2013-05-06 01:15:00,57.4,47.1,29.83,East,81,0.0,0.0,68,0.00,,,0.00,WUHU216WMR968SP,2013-05-06 08:15:00,
2013-05-06 01:20:00,57.4,47.4,29.83,ESE,107,0.0,0.0,69,0.00,,,0.00,WUHU216WMR968SP,2013-05-06 08:20:00,
2013-05-06 01:25:00,57.2,47.6,29.83,East,98,0.0,0.0,70,0.00,,,0.00,WUHU216WMR968SP,2013-05-06 08:25:00,
2013-05-06 01:30:00,57.2,47.6,29.83,SE,140,0.0,0.0,70,0.00,,,0.00,WUHU216WMR968SP,2013-05-06 08:30:00,
2013-05-06 01:35:00,57.2,48.0,29.83,ESE,111,0.0,0.0,71,0.00,,,0.00,WUHU216WMR968SP,2013-05-06 08:35:00,
2013-05-06 01:40:00,57.2,48.0,29.83,SE,125,0.0,0.0,71,0.00,,,0.00,WUHU216WMR968SP,2013-05-06 08:40:00,
2013-05-06 01:45:00,57.2,48.0,29.83,East,91,0.0,0.0,71,0.00,,,0.00,WUHU216WMR968SP,2013-05-06 08:45:00,
2013-05-06 01:50:00,57.4,48.6,29.83,East,97,0.0,0.0,72,0.00,,,0.00,WUHU216WMR968SP,2013-05-06 08:50:00,
2013-05-06 01:55:00,57.6,48.8,29.83,ESE,123,0.0,0.0,72,0.00,,,0.00,WUHU216WMR968SP,2013-05-06 08:55:00,
2013-05-06 02:00:00,57.6,48.4,29.83,SE,124,0.0,0.0,71,0.00,,,0.00,WUHU216WMR968SP,2013-05-06 09:00:00,
2013-05-06 02:05:00,57.6,48.4,29.83,ESE,104,0.0,0.0,71,0.00,,,0.00,WUHU216WMR968SP,2013-05-06 09:05:00,
2013-05-06 02:10:00,57.6,48.4,29.83,East,97,0.0,0.0,71,0.00,,,0.00,WUHU216WMR968SP,2013-05-06 09:10:00,
2013-05-06 02:15:00,57.7,48.1,29.83,SE,136,0.0,0.0,70,0.00,,,0.00,WUHU216WMR968SP,2013-05-06 09:15:00,
2013-05-06 02:20:00,57.7,48.1,29.83,SE,141,0.0,0.0,70,0.00,,,0.00,WUHU216WMR968SP,2013-05-06 09:20:00,
2013-05-06 02:25:00,57.9,48.3,29.83,ESE,110,0.0,0.0,70,0.00,,,0.00,WUHU216WMR968SP,2013-05-06 09:25:00,
2013-05-06 02:30:00,57.9,48.7,29.83,ESE,110,0.0,0.0,71,0.00,,,0.00,WUHU216WMR968SP,2013-05-06 09:30:00,
2013-05-06 02:35:00,57.9,48.7,29.83,ESE,123,0.0,0.0,71,0.00,,,0.00,WUHU216WMR968SP,2013-05-06 09:35:00,
2013-05-06 02:40:00,57.9,48.7,29.83,ENE,78,0.0,0.0,71,0.00,,,0.00,WUHU216WMR968SP,2013-05-06 09:40:00,
2013-05-06 02:45:00,57.9,49.0,29.83,East,86,0.0,0.0,72,0.00,,,0.00,WUHU216WMR968SP,2013-05-06 09:45:00,
2013-05-06 02:50:00,57.7,48.9,29.83,East,86,0.0,0.0,72,0.00,,,0.00,WUHU216WMR968SP,2013-05-06 09:50:00,
2013-05-06 02:55:00,57.7,49.2,29.83,East,83,0.0,0.0,73,0.00,,,0.00,WUHU216WMR968SP,2013-05-06 09:55:00,
2013-05-06 03:00:00,57.6,49.5,29.83,ENE,64,0.0,0.0,74,0.00,,,0.00,WUHU216WMR968SP,2013-05-06 10:00:00,
2013-05-06 03:05:00,57.4,49.3,29.83,ENE,73,0.0,0.0,74,0.00,,,0.00,WUHU216WMR968SP,2013-05-06 10:05:00,
2013-05-06 03:10:00,57.4,49.6,29.83,ESE,116,0.0,0.0,75,0.00,,,0.00,WUHU216WMR968SP,2013-05-06 10:10:00,
2013-05-06 03:15:00,57.4,49.6,29.83,ENE,76,0.0,0.0,75,0.00,,,0.00,WUHU216WMR968SP,2013-05-06 10:15:00,
2013-05-06 03:20:00,57.4,49.6,29.83,East,90,0.0,0.0,75,0.00,,,0.00,WUHU216WMR968SP,2013-05-06 10:20:00,
2013-05-06 03:25:00,57.2,49.4,29.83,East,99,0.0,0.0,75,0.00,,,0.00,WUHU216WMR968SP,2013-05-06 10:25:00,
2013-05-06 03:30:00,57.2,49.4,29.83,East,81,0.0,0.0,75,0.00,,,0.00,WUHU216WMR968SP,2013-05-06 10:30:00,
2013-05-06 03:35:00,57.0,49.6,29.83,SE,132,0.0,0.0,76,0.03,,,0.03,WUHU216WMR968SP,2013-05-06 10:35:00,
2013-05-06 03:40:00,57.0,49.6,29.83,East,86,0.0,0.0,76,0.03,,,0.03,WUHU216WMR968SP,2013-05-06 10:40:00,
2013-05-06 03:45:00,56.8,49.7,29.83,East,99,0.0,0.0,77,0.03,,,0.03,WUHU216WMR968SP,2013-05-06 10:45:00,
2013-05-06 03:50:00,56.8,49.7,29.83,East,93,0.0,0.0,77,0.03,,,0.03,WUHU216WMR968SP,2013-05-06 10:50:00,
2013-05-06 03:55:00,56.8,50.1,29.83,East,93,0.0,0.0,78,0.03,,,0.03,WUHU216WMR968SP,2013-05-06 10:55:00,
2013-05-06 04:00:00,56.8,50.1,29.83,East,91,0.0,0.0,78,0.07,,,0.07,WUHU216WMR968SP,2013-05-06 11:00:00,
2013-05-06 04:05:00,56.8,50.1,29.83,East,85,0.0,0.0,78,0.07,,,0.07,WUHU216WMR968SP,2013-05-06 11:05:00,
2013-05-06 04:10:00,56.8,50.4,29.83,SE,133,0.0,0.0,79,0.07,,,0.07,WUHU216WMR968SP,2013-05-06 11:10:00,
2013-05-06 04:15:00,56.8,50.7,29.83,East,98,0.0,0.0,80,0.07,,,0.07,WUHU216WMR968SP,2013-05-06 11:15:00,
2013-05-06 04:20:00,56.8,50.7,29.83,ENE,76,0.0,0.0,80,0.11,,,0.11,WUHU216WMR968SP,2013-05-06 11:20:00,
2013-05-06 04:25:00,56.8,51.1,29.83,East,99,0.0,0.0,81,0.11,,,0.11,WUHU216WMR968SP,2013-05-06 11:25:00,
2013-05-06 04:30:00,56.7,51.3,29.83,NNW,342,0.0,0.0,82,0.08,,,0.11,WUHU216WMR968SP,2013-05-06 11:30:00,
2013-05-06 04:35:00,56.7,51.6,29.81,East,92,0.0,0.0,83,0.08,,,0.11,WUHU216WMR968SP,2013-05-06 11:35:00,
2013-05-06 04:40:00,56.5,51.7,29.81,NE,49,0.0,0.0,84,0.16,,,0.19,WUHU216WMR968SP,2013-05-06 11:40:00,
2013-05-06 04:45:00,56.5,52.0,29.81,NE,49,0.0,0.0,85,0.16,,,0.19,WUHU216WMR968SP,2013-05-06 11:45:00,
2013-05-06 04:50:00,56.5,52.0,29.81,East,94,0.0,0.0,85,0.16,,,0.19,WUHU216WMR968SP,2013-05-06 11:50:00,
2013-05-06 04:55:00,56.5,52.4,29.83,East,91,0.0,0.0,86,0.16,,,0.19,WUHU216WMR968SP,2013-05-06 11:55:00,
2013-05-06 05:00:00,56.3,52.2,29.83,North,4,0.0,0.0,86,0.16,,,0.23,WUHU216WMR968SP,2013-05-06 12:00:00,
2013-05-06 05:05:00,56.1,52.0,29.83,North,10,0.0,0.0,86,0.16,,,0.23,WUHU216WMR968SP,2013-05-06 12:05:00,
2013-05-06 05:10:00,56.3,52.5,29.81,North,10,0.0,0.0,87,0.16,,,0.23,WUHU216WMR968SP,2013-05-06 12:10:00,
2013-05-06 05:15:00,56.3,52.5,29.81,NNE,24,0.0,0.0,87,0.16,,,0.23,WUHU216WMR968SP,2013-05-06 12:15:00,
2013-05-06 05:20:00,56.1,52.3,29.81,NNE,24,0.0,0.0,87,0.12,,,0.23,WUHU216WMR968SP,2013-05-06 12:20:00,
2013-05-06 05:25:00,56.3,52.8,29.81,NNE,24,0.0,0.0,88,0.12,,,0.23,WUHU216WMR968SP,2013-05-06 12:25:00,
2013-05-06 05:30:00,56.3,53.1,29.81,North,11,0.0,0.0,89,0.12,,,0.23,WUHU216WMR968SP,2013-05-06 12:30:00,
2013-05-06 05:35:00,56.3,53.4,29.81,NE,49,0.0,0.0,90,0.12,,,0.23,WUHU216WMR968SP,2013-05-06 12:35:00,
2013-05-06 05:40:00,56.5,53.9,29.81,ESE,106,0.0,0.0,91,0.04,,,0.23,WUHU216WMR968SP,2013-05-06 12:40:00,
2013-05-06 05:45:00,56.5,53.9,29.81,ESE,103,0.0,0.0,91,0.08,,,0.27,WUHU216WMR968SP,2013-05-06 12:45:00,
2013-05-06 05:50:00,56.7,54.4,29.81,ENE,77,0.0,0.0,92,0.08,,,0.27,WUHU216WMR968SP,2013-05-06 12:50:00,
2013-05-06 05:55:00,56.7,54.4,29.81,East,92,0.0,0.0,92,0.08,,,0.27,WUHU216WMR968SP,2013-05-06 12:55:00,
2013-05-06 06:00:00,56.7,54.7,29.81,SE,129,0.0,0.0,93,0.04,,,0.27,WUHU216WMR968SP,2013-05-06 13:00:00,
2013-05-06 06:05:00,56.8,54.8,29.81,ESE,114,0.0,0.0,93,0.04,,,0.27,WUHU216WMR968SP,2013-05-06 13:05:00,
2013-05-06 06:10:00,57.0,55.5,29.81,ESE,121,0.0,0.0,95,0.04,,,0.27,WUHU216WMR968SP,2013-05-06 13:10:00,
2013-05-06 06:15:00,57.2,55.7,29.81,SE,128,0.0,0.0,95,0.04,,,0.27,WUHU216WMR968SP,2013-05-06 13:15:00,
2013-05-06 06:20:00,57.4,56.2,29.81,SW,236,0.0,0.0,96,0.04,,,0.27,WUHU216WMR968SP,2013-05-06 13:20:00,
2013-05-06 06:25:00,57.6,56.4,29.81,NE,45,0.0,0.0,96,0.04,,,0.27,WUHU216WMR968SP,2013-05-06 13:25:00,
2013-05-06 06:30:00,57.6,56.7,29.81,South,169,0.0,0.0,97,0.04,,,0.27,WUHU216WMR968SP,2013-05-06 13:30:00,
2013-05-06 06:35:00,57.6,56.7,29.81,SSW,200,0.0,0.0,97,0.04,,,0.27,WUHU216WMR968SP,2013-05-06 13:35:00,
2013-05-06 06:40:00,57.7,57.1,29.83,SSE,167,0.0,0.0,98,0.04,,,0.27,WUHU216WMR968SP,2013-05-06 13:40:00,
2013-05-06 06:45:00,57.9,57.3,29.83,ESE,119,0.0,0.0,98,0.00,,,0.27,WUHU216WMR968SP,2013-05-06 13:45:00,
2013-05-06 06:50:00,57.9,57.3,29.83,SSW,201,0.0,0.0,98,0.00,,,0.27,WUHU216WMR968SP,2013-05-06 13:50:00,
2013-05-06 06:55:00,57.9,57.3,29.83,SSW,202,0.0,0.0,98,0.00,,,0.27,WUHU216WMR968SP,2013-05-06 13:55:00,
2013-05-06 07:00:00,58.1,57.5,29.83,SSE,160,0.0,0.0,98,0.00,,,0.27,WUHU216WMR968SP,2013-05-06 14:00:00,
2013-05-06 07:05:00,58.1,57.5,29.83,South,190,0.0,0.0,98,0.00,,,0.27,WUHU216WMR968SP,2013-05-06 14:05:00,
2013-05-06 07:10:00,58.1,57.8,29.83,SSW,197,0.0,0.0,99,0.00,,,0.27,WUHU216WMR968SP,2013-05-06 14:10:00,
2013-05-06 07:15:00,58.3,58.0,29.83,SW,215,0.0,0.0,99,0.00,,,0.27,WUHU216WMR968SP,2013-05-06 14:15:00,
2013-05-06 07:20:00,58.3,58.0,29.83,SW,223,0.0,0.0,99,0.00,,,0.27,WUHU216WMR968SP,2013-05-06 14:20:00,
2013-05-06 07:25:00,58.5,58.2,29.83,SSW,204,0.0,0.0,99,0.00,,,0.27,WUHU216WMR968SP,2013-05-06 14:25:00,
2013-05-06 07:30:00,58.5,58.2,29.83,SW,232,0.0,0.0,99,0.00,,,0.27,WUHU216WMR968SP,2013-05-06 14:30:00,
2013-05-06 07:35:00,58.5,58.2,29.83,SW,232,0.0,0.0,99,0.00,,,0.27,WUHU216WMR968SP,2013-05-06 14:35:00,
2013-05-06 07:40:00,58.5,58.5,29.83,SSE,163,0.0,0.0,100,0.00,,,0.27,WUHU216WMR968SP,2013-05-06 14:40:00,
2013-05-06 07:45:00,58.6,58.6,29.83,SSE,155,0.0,0.0,100,0.00,,,0.27,WUHU216WMR968SP,2013-05-06 14:45:00,
2013-05-06 07:50:00,58.8,58.8,29.86,ESE,115,0.0,0.0,100,0.00,,,0.27,WUHU216WMR968SP,2013-05-06 14:50:00,
2013-05-06 07:55:00,58.8,58.8,29.86,East,82,0.0,0.0,100,0.00,,,0.27,WUHU216WMR968SP,2013-05-06 14:55:00,
2013-05-06 08:00:00,58.8,58.8,29.86,ESE,110,0.0,0.0,100,0.00,,,0.27,WUHU216WMR968SP,2013-05-06 15:00:00,
2013-05-06 08:05:00,58.8,58.8,29.86,SE,141,0.0,0.0,100,0.00,,,0.27,WUHU216WMR968SP,2013-05-06 15:05:00,
2013-05-06 08:10:00,58.8,58.8,29.86,ENE,65,0.0,0.0,100,0.00,,,0.27,WUHU216WMR968SP,2013-05-06 15:10:00,
2013-05-06 08:15:00,58.8,58.8,29.86,East,94,0.0,0.0,100,0.00,,,0.27,WUHU216WMR968SP,2013-05-06 15:15:00,
2013-05-06 08:20:00,59.0,59.0,29.86,East,94,0.0,0.0,100,0.00,,,0.27,WUHU216WMR968SP,2013-05-06 15:20:00,
2013-05-06 08:25:00,59.0,59.0,29.86,East,79,0.0,0.0,100,0.00,,,0.27,WUHU216WMR968SP,2013-05-06 15:25:00,
2013-05-06 08:30:00,59.2,59.2,29.86,East,79,0.0,0.0,100,0.00,,,0.27,WUHU216WMR968SP,2013-05-06 15:30:00,
2013-05-06 08:35:00,59.2,59.2,29.83,ENE,74,0.0,0.0,100,0.00,,,0.27,WUHU216WMR968SP,2013-05-06 15:35:00,
2013-05-06 08:40:00,59.2,59.2,29.83,ENE,75,0.0,0.0,100,0.00,,,0.27,WUHU216WMR968SP,2013-05-06 15:40:00,
2013-05-06 08:45:00,59.4,59.4,29.83,East,87,0.0,0.0,100,0.00,,,0.27,WUHU216WMR968SP,2013-05-06 15:45:00,
2013-05-06 08:50:00,59.4,59.4,29.83,East,92,0.0,0.0,100,0.00,,,0.27,WUHU216WMR968SP,2013-05-06 15:50:00,
2013-05-06 08:55:00,59.4,59.4,29.81,ESE,102,0.0,0.0,100,0.00,,,0.27,WUHU216WMR968SP,2013-05-06 15:55:00,
2013-05-06 09:00:00,59.4,59.4,29.81,ESE,102,0.0,0.0,100,0.00,,,0.27,WUHU216WMR968SP,2013-05-06 16:00:00,
2013-05-06 09:05:00,59.5,59.5,29.81,ESE,102,0.0,0.0,100,0.00,,,0.27,WUHU216WMR968SP,2013-05-06 16:05:00,
2013-05-06 09:10:00,59.5,59.5,29.81,ESE,112,0.0,0.0,100,0.00,,,0.27,WUHU216WMR968SP,2013-05-06 16:10:00,
2013-05-06 09:15:00,59.4,59.1,29.81,SSW,200,0.0,0.0,99,0.00,,,0.27,WUHU216WMR968SP,2013-05-06 16:15:00,
2013-05-06 09:20:00,58.8,58.2,29.83,SSW,193,0.0,0.0,98,0.04,,,0.31,WUHU216WMR968SP,2013-05-06 16:20:00,
2013-05-06 09:25:00,58.6,58.0,29.83,ESE,116,0.0,0.0,98,0.04,,,0.31,WUHU216WMR968SP,2013-05-06 16:25:00,
2013-05-06 09:30:00,58.6,58.3,29.83,ESE,109,0.0,0.0,99,0.04,,,0.31,WUHU216WMR968SP,2013-05-06 16:30:00,
2013-05-06 09:35:00,58.8,58.5,29.83,ESE,109,0.0,0.0,99,0.04,,,0.31,WUHU216WMR968SP,2013-05-06 16:35:00,
2013-05-06 09:40:00,59.0,58.7,29.83,ESE,118,0.0,0.0,99,0.04,,,0.31,WUHU216WMR968SP,2013-05-06 16:40:00,
2013-05-06 09:45:00,59.5,59.2,29.83,WSW,240,0.0,0.0,99,0.04,,,0.31,WUHU216WMR968SP,2013-05-06 16:45:00,
2013-05-06 09:50:00,60.1,59.8,29.83,WSW,239,0.0,3.6,99,0.04,,,0.31,WUHU216WMR968SP,2013-05-06 16:50:00,
2013-05-06 09:55:00,60.4,60.1,29.83,ESE,112,3.1,6.3,99,0.04,,,0.31,WUHU216WMR968SP,2013-05-06 16:55:00,
2013-05-06 10:00:00,60.8,60.5,29.83,SSW,195,2.7,6.3,99,0.04,,,0.31,WUHU216WMR968SP,2013-05-06 17:00:00,
2013-05-06 10:05:00,60.8,60.2,29.83,SSW,197,2.2,4.9,98,0.04,,,0.31,WUHU216WMR968SP,2013-05-06 17:05:00,
2013-05-06 10:10:00,60.4,59.2,29.83,SSW,207,2.2,5.8,96,0.04,,,0.31,WUHU216WMR968SP,2013-05-06 17:10:00,
2013-05-06 10:15:00,60.4,58.6,29.83,SW,217,0.0,5.8,94,0.04,,,0.31,WUHU216WMR968SP,2013-05-06 17:15:00,
2013-05-06 10:20:00,60.4,58.6,29.83,South,190,0.0,4.0,94,0.00,,,0.31,WUHU216WMR968SP,2013-05-06 17:20:00,
2013-05-06 10:25:00,60.4,58.3,29.83,SE,142,0.0,3.1,93,0.00,,,0.31,WUHU216WMR968SP,2013-05-06 17:25:00,
2013-05-06 10:30:00,60.6,58.5,29.83,ENE,63,2.2,3.6,93,0.00,,,0.31,WUHU216WMR968SP,2013-05-06 17:30:00,
2013-05-06 10:35:00,61.0,58.9,29.83,ESE,104,3.1,4.0,93,0.00,,,0.31,WUHU216WMR968SP,2013-05-06 17:35:00,
2013-05-06 10:40:00,61.2,58.8,29.86,East,96,3.1,4.9,92,0.00,,,0.31,WUHU216WMR968SP,2013-05-06 17:40:00,
2013-05-06 10:45:00,61.2,58.2,29.86,ENE,72,3.6,6.3,90,0.00,,,0.31,WUHU216WMR968SP,2013-05-06 17:45:00,
2013-05-06 10:50:00,61.3,56.8,29.86,East,100,0.0,6.3,85,0.00,,,0.31,WUHU216WMR968SP,2013-05-06 17:50:00,
2013-05-06 10:55:00,61.3,55.5,29.86,East,92,0.0,5.4,81,0.00,,,0.31,WUHU216WMR968SP,2013-05-06 17:55:00,
2013-05-06 11:00:00,61.3,54.8,29.86,SSW,192,0.0,5.4,79,0.00,,,0.31,WUHU216WMR968SP,2013-05-06 18:00:00,
2013-05-06 11:05:00,61.5,54.3,29.86,SSW,196,4.0,7.6,77,0.00,,,0.31,WUHU216WMR968SP,2013-05-06 18:05:00,
2013-05-06 11:10:00,61.7,53.8,29.86,SSW,211,3.1,7.6,75,0.00,,,0.31,WUHU216WMR968SP,2013-05-06 18:10:00,
2013-05-06 11:15:00,61.9,54.0,29.86,South,185,2.2,6.3,75,0.00,,,0.31,WUHU216WMR968SP,2013-05-06 18:15:00,
2013-05-06 11:20:00,62.2,53.6,29.86,SSE,150,0.0,4.0,73,0.00,,,0.31,WUHU216WMR968SP,2013-05-06 18:20:00,
2013-05-06 11:25:00,62.4,53.0,29.86,SSW,210,0.0,2.2,71,0.00,,,0.31,WUHU216WMR968SP,2013-05-06 18:25:00,
2013-05-06 11:30:00,63.0,52.4,29.86,WSW,246,0.0,0.0,68,0.00,,,0.31,WUHU216WMR968SP,2013-05-06 18:30:00,
2013-05-06 11:35:00,63.1,52.1,29.86,East,99,0.0,0.0,67,0.00,,,0.31,WUHU216WMR968SP,2013-05-06 18:35:00,
2013-05-06 11:40:00,63.3,51.9,29.86,SW,224,0.0,0.0,66,0.00,,,0.31,WUHU216WMR968SP,2013-05-06 18:40:00,
2013-05-06 11:45:00,63.3,51.5,29.86,WSW,257,0.0,0.0,65,0.00,,,0.31,WUHU216WMR968SP,2013-05-06 18:45:00,
2013-05-06 11:50:00,63.3,51.1,29.86,South,186,0.0,0.0,64,0.00,,,0.31,WUHU216WMR968SP,2013-05-06 18:50:00,
2013-05-06 11:55:00,63.1,50.9,29.86,SE,130,0.0,0.0,64,0.00,,,0.31,WUHU216WMR968SP,2013-05-06 18:55:00,
2013-05-06 12:00:00,63.3,51.1,29.86,SW,220,0.0,0.0,64,0.00,,,0.31,WUHU216WMR968SP,2013-05-06 19:00:00,
2013-05-06 12:05:00,63.1,50.5,29.86,SSW,200,0.0,0.0,63,0.00,,,0.31,WUHU216WMR968SP,2013-05-06 19:05:00,
2013-05-06 12:10:00,63.7,51.5,29.86,SSE,159,0.0,0.0,64,0.00,,,0.31,WUHU216WMR968SP,2013-05-06 19:10:00,
2013-05-06 12:15:00,64.0,51.3,29.86,WSW,238,0.0,0.0,63,0.00,,,0.31,WUHU216WMR968SP,2013-05-06 19:15:00,
2013-05-06 12:20:00,64.4,51.3,29.86,South,178,0.0,0.0,62,0.00,,,0.31,WUHU216WMR968SP,2013-05-06 19:20:00,
2013-05-06 12:25:00,64.8,50.7,29.86,SW,236,3.6,7.6,60,0.00,,,0.31,WUHU216WMR968SP,2013-05-06 19:25:00,
2013-05-06 12:30:00,65.1,50.6,29.86,SSW,211,5.4,7.6,59,0.00,,,0.31,WUHU216WMR968SP,2013-05-06 19:30:00,
2013-05-06 12:35:00,65.1,50.1,29.86,SW,233,4.9,7.6,58,0.00,,,0.31,WUHU216WMR968SP,2013-05-06 19:35:00,
2013-05-06 12:40:00,65.3,49.8,29.86,West,259,2.7,6.3,57,0.00,,,0.31,WUHU216WMR968SP,2013-05-06 19:40:00,
2013-05-06 12:45:00,65.3,49.8,29.86,ESE,117,4.9,8.3,57,0.00,,,0.31,WUHU216WMR968SP,2013-05-06 19:45:00,
2013-05-06 12:50:00,65.3,49.8,29.86,SE,137,3.1,8.7,57,0.00,,,0.31,WUHU216WMR968SP,2013-05-06 19:50:00,
2013-05-06 12:55:00,65.3,49.3,29.86,ESE,103,0.0,8.7,56,0.00,,,0.31,WUHU216WMR968SP,2013-05-06 19:55:00,
2013-05-06 13:00:00,65.1,48.6,29.86,SW,222,0.0,3.1,55,0.00,,,0.31,WUHU216WMR968SP,2013-05-06 20:00:00,
2013-05-06 13:05:00,64.9,48.4,29.86,South,186,0.0,0.0,55,0.00,,,0.31,WUHU216WMR968SP,2013-05-06 20:05:00,
2013-05-06 13:10:00,64.8,48.4,29.86,SSW,207,0.0,0.0,55,0.00,,,0.31,WUHU216WMR968SP,2013-05-06 20:10:00,
2013-05-06 13:15:00,64.8,48.4,29.86,SSW,204,0.0,0.0,55,0.00,,,0.31,WUHU216WMR968SP,2013-05-06 20:15:00,
2013-05-06 13:20:00,64.8,48.4,29.86,SW,231,0.0,0.0,55,0.00,,,0.31,WUHU216WMR968SP,2013-05-06 20:20:00,
2013-05-06 13:25:00,64.6,48.7,29.86,NW,306,0.0,0.0,56,0.00,,,0.31,WUHU216WMR968SP,2013-05-06 20:25:00,
2013-05-06 13:30:00,64.4,48.0,29.86,SE,140,0.0,0.0,55,0.00,,,0.31,WUHU216WMR968SP,2013-05-06 20:30:00,
2013-05-06 13:35:00,64.6,48.2,29.86,SW,223,0.0,0.0,55,0.00,,,0.31,WUHU216WMR968SP,2013-05-06 20:35:00,
2013-05-06 13:40:00,64.8,48.4,29.86,SSW,211,0.0,0.0,55,0.00,,,0.31,WUHU216WMR968SP,2013-05-06 20:40:00,
2013-05-06 13:45:00,65.1,48.6,29.86,WSW,238,0.0,0.0,55,0.00,,,0.31,WUHU216WMR968SP,2013-05-06 20:45:00,
2013-05-06 13:51:00,65.5,48.5,29.86,SSW,194,0.0,0.0,54,0.00,,,0.31,WUHU216WMR968SP,2013-05-06 20:51:00,
2013-05-06 13:56:00,65.8,48.8,29.86,East,87,0.0,0.0,54,0.00,,,0.31,WUHU216WMR968SP,2013-05-06 20:56:00,
2013-05-06 14:01:00,66.0,49.0,29.86,SW,236,0.0,0.0,54,0.00,,,0.31,WUHU216WMR968SP,2013-05-06 21:01:00,
2013-05-06 14:06:00,66.2,49.2,29.86,ESE,115,0.0,0.0,54,0.00,,,0.31,WUHU216WMR968SP,2013-05-06 21:06:00,
2013-05-06 14:11:00,66.2,49.2,29.86,SW,228,0.0,0.0,54,0.00,,,0.31,WUHU216WMR968SP,2013-05-06 21:11:00,
2013-05-06 14:16:00,66.0,49.0,29.86,WSW,245,0.0,0.0,54,0.00,,,0.31,WUHU216WMR968SP,2013-05-06 21:16:00,
2013-05-06 14:21:00,65.8,48.8,29.86,South,185,0.0,0.0,54,0.00,,,0.31,WUHU216WMR968SP,2013-05-06 21:21:00,
2013-05-06 14:26:00,65.7,48.2,29.86,SSW,210,0.0,0.0,53,0.00,,,0.31,WUHU216WMR968SP,2013-05-06 21:26:00,
2013-05-06 14:31:00,65.7,48.2,29.86,SW,223,0.0,0.0,53,0.00,,,0.31,WUHU216WMR968SP,2013-05-06 21:31:00,
2013-05-06 14:36:00,65.8,48.3,29.86,SSW,194,0.0,0.0,53,0.00,,,0.31,WUHU216WMR968SP,2013-05-06 21:36:00,
2013-05-06 14:41:00,66.0,48.5,29.86,SW,223,0.0,0.0,53,0.00,,,0.31,WUHU216WMR968SP,2013-05-06 21:41:00,
2013-05-06 14:46:00,66.0,48.5,29.86,SW,218,0.0,0.0,53,0.00,,,0.31,WUHU216WMR968SP,2013-05-06 21:46:00,
2013-05-06 14:51:00,65.8,48.3,29.86,ESE,110,0.0,0.0,53,0.00,,,0.31,WUHU216WMR968SP,2013-05-06 21:51:00,
2013-05-06 14:56:00,65.7,48.2,29.83,SSW,212,0.0,0.0,53,0.00,,,0.31,WUHU216WMR968SP,2013-05-06 21:56:00,
2013-05-06 15:01:00,65.3,47.8,29.83,SW,230,0.0,0.0,53,0.00,,,0.31,WUHU216WMR968SP,2013-05-06 22:01:00,
2013-05-06 15:06:00,65.1,48.1,29.83,WSW,244,0.0,0.0,54,0.00,,,0.31,WUHU216WMR968SP,2013-05-06 22:06:00,
2013-05-06 15:11:00,64.9,47.9,29.83,SW,216,0.0,0.0,54,0.00,,,0.31,WUHU216WMR968SP,2013-05-06 22:11:00,
2013-05-06 15:16:00,64.8,47.9,29.83,WSW,248,0.0,0.0,54,0.00,,,0.31,WUHU216WMR968SP,2013-05-06 22:16:00,
2013-05-06 15:21:00,64.8,47.9,29.83,South,189,0.0,0.0,54,0.00,,,0.31,WUHU216WMR968SP,2013-05-06 22:21:00,
2013-05-06 15:26:00,65.1,48.1,29.83,South,190,0.0,0.0,54,0.00,,,0.31,WUHU216WMR968SP,2013-05-06 22:26:00,
2013-05-06 15:31:00,65.3,48.3,29.83,SW,221,0.0,0.0,54,0.00,,,0.31,WUHU216WMR968SP,2013-05-06 22:31:00,
2013-05-06 15:36:00,65.3,48.3,29.83,SSW,194,0.0,0.0,54,0.00,,,0.31,WUHU216WMR968SP,2013-05-06 22:36:00,
2013-05-06 15:41:00,65.3,48.3,29.83,WSW,252,0.0,0.0,54,0.00,,,0.31,WUHU216WMR968SP,2013-05-06 22:41:00,
2013-05-06 15:46:00,65.3,48.3,29.83,SSW,200,0.0,0.0,54,0.00,,,0.31,WUHU216WMR968SP,2013-05-06 22:46:00,
2013-05-06 15:51:00,65.3,48.3,29.83,SSW,205,0.0,0.0,54,0.00,,,0.31,WUHU216WMR968SP,2013-05-06 22:51:00,
2013-05-06 15:56:00,65.5,48.5,29.83,SSW,192,0.0,0.0,54,0.00,,,0.31,WUHU216WMR968SP,2013-05-06 22:56:00,
2013-05-06 16:01:00,65.7,48.7,29.83,SSW,198,0.0,0.0,54,0.00,,,0.31,WUHU216WMR968SP,2013-05-06 23:01:00,
2013-05-06 16:06:00,65.8,48.8,29.83,SSW,195,0.0,0.0,54,0.00,,,0.31,WUHU216WMR968SP,2013-05-06 23:06:00,
2013-05-06 16:11:00,65.8,48.3,29.83,SW,222,0.0,0.0,53,0.00,,,0.31,WUHU216WMR968SP,2013-05-06 23:11:00,
2013-05-06 16:16:00,65.7,48.2,29.83,SW,217,0.0,0.0,53,0.00,,,0.31,WUHU216WMR968SP,2013-05-06 23:16:00,
2013-05-06 16:21:00,65.3,48.3,29.83,SSW,203,0.0,0.0,54,0.00,,,0.31,WUHU216WMR968SP,2013-05-06 23:21:00,
2013-05-06 16:26:00,65.1,47.6,29.83,SSW,209,0.0,0.0,53,0.00,,,0.31,WUHU216WMR968SP,2013-05-06 23:26:00,
2013-05-06 16:31:00,64.9,47.9,29.83,SW,223,0.0,0.0,54,0.00,,,0.31,WUHU216WMR968SP,2013-05-06 23:31:00,
2013-05-06 16:36:00,64.9,47.9,29.83,SSW,208,0.0,0.0,54,0.00,,,0.31,WUHU216WMR968SP,2013-05-06 23:36:00,
2013-05-06 16:41:00,64.8,47.9,29.83,SSW,204,0.0,0.0,54,0.00,,,0.31,WUHU216WMR968SP,2013-05-06 23:41:00,
2013-05-06 16:46:00,64.6,47.7,29.83,East,98,0.0,0.0,54,0.00,,,0.31,WUHU216WMR968SP,2013-05-06 23:46:00,
2013-05-06 16:51:00,64.6,47.7,29.83,South,184,0.0,0.0,54,0.00,,,0.31,WUHU216WMR968SP,2013-05-06 23:51:00,
2013-05-06 16:56:00,64.4,48.0,29.83,SW,218,0.0,0.0,55,0.00,,,0.31,WUHU216WMR968SP,2013-05-06 23:56:00,
2013-05-06 17:01:00,64.2,47.8,29.83,SSW,207,0.0,0.0,55,0.00,,,0.31,WUHU216WMR968SP,2013-05-07 00:01:00,
2013-05-06 17:06:00,64.0,47.6,29.83,ESE,107,0.0,0.0,55,0.00,,,0.31,WUHU216WMR968SP,2013-05-07 00:06:00,
2013-05-06 17:11:00,64.2,47.8,29.83,South,177,0.0,0.0,55,0.00,,,0.31,WUHU216WMR968SP,2013-05-07 00:11:00,
2013-05-06 17:16:00,64.2,47.8,29.83,ESE,116,0.0,0.0,55,0.00,,,0.31,WUHU216WMR968SP,2013-05-07 00:16:00,
2013-05-06 17:21:00,64.2,47.8,29.83,WSW,244,0.0,0.0,55,0.00,,,0.31,WUHU216WMR968SP,2013-05-07 00:21:00,
2013-05-06 17:26:00,64.2,47.8,29.83,SE,139,0.0,0.0,55,0.00,,,0.31,WUHU216WMR968SP,2013-05-07 00:26:00,
2013-05-06 17:31:00,64.0,47.6,29.83,SSW,208,0.0,0.0,55,0.00,,,0.31,WUHU216WMR968SP,2013-05-07 00:31:00,
2013-05-06 17:36:00,64.0,47.6,29.83,SW,214,0.0,0.0,55,0.00,,,0.31,WUHU216WMR968SP,2013-05-07 00:36:00,
2013-05-06 17:41:00,63.9,47.5,29.83,SSE,147,0.0,0.0,55,0.00,,,0.31,WUHU216WMR968SP,2013-05-07 00:41:00,
2013-05-06 17:46:00,63.3,47.0,29.83,SE,126,0.0,0.0,55,0.00,,,0.31,WUHU216WMR968SP,2013-05-07 00:46:00,
2013-05-06 17:51:00,63.1,46.8,29.83,South,173,0.0,0.0,55,0.00,,,0.31,WUHU216WMR968SP,2013-05-07 00:51:00,
2013-05-06 17:56:00,63.0,46.7,29.83,East,97,0.0,0.0,55,0.00,,,0.31,WUHU216WMR968SP,2013-05-07 00:56:00,
2013-05-06 18:01:00,63.0,46.7,29.83,SW,233,0.0,0.0,55,0.00,,,0.31,WUHU216WMR968SP,2013-05-07 01:01:00,
2013-05-06 18:06:00,63.3,47.0,29.83,SE,140,0.0,0.0,55,0.00,,,0.31,WUHU216WMR968SP,2013-05-07 01:06:00,
2013-05-06 18:11:00,63.5,47.1,29.83,SW,234,0.0,0.0,55,0.00,,,0.31,WUHU216WMR968SP,2013-05-07 01:11:00,
2013-05-06 18:16:00,63.5,47.1,29.83,SSW,206,0.0,0.0,55,0.00,,,0.31,WUHU216WMR968SP,2013-05-07 01:16:00,
2013-05-06 18:21:00,63.5,47.1,29.83,ENE,74,0.0,0.0,55,0.00,,,0.31,WUHU216WMR968SP,2013-05-07 01:21:00,
2013-05-06 18:26:00,63.3,47.0,29.83,WSW,241,0.0,0.0,55,0.00,,,0.31,WUHU216WMR968SP,2013-05-07 01:26:00,
2013-05-06 18:31:00,63.1,46.8,29.83,ESE,114,0.0,0.0,55,0.00,,,0.31,WUHU216WMR968SP,2013-05-07 01:31:00,
2013-05-06 18:36:00,63.0,46.7,29.83,SSE,168,0.0,0.0,55,0.00,,,0.31,WUHU216WMR968SP,2013-05-07 01:36:00,
2013-05-06 18:41:00,63.0,46.7,29.83,ESE,116,0.0,0.0,55,0.00,,,0.31,WUHU216WMR968SP,2013-05-07 01:41:00,
2013-05-06 18:46:00,62.6,46.3,29.83,SE,137,0.0,0.0,55,0.00,,,0.31,WUHU216WMR968SP,2013-05-07 01:46:00,
2013-05-06 18:51:00,62.4,46.6,29.83,SSW,194,0.0,0.0,56,0.00,,,0.31,WUHU216WMR968SP,2013-05-07 01:51:00,
2013-05-06 18:56:00,62.2,46.4,29.83,South,177,0.0,0.0,56,0.00,,,0.31,WUHU216WMR968SP,2013-05-07 01:56:00,
2013-05-06 19:01:00,62.1,46.3,29.83,SW,219,0.0,0.0,56,0.00,,,0.31,WUHU216WMR968SP,2013-05-07 02:01:00,
2013-05-06 19:06:00,62.1,46.3,29.83,SW,223,0.0,0.0,56,0.00,,,0.31,WUHU216WMR968SP,2013-05-07 02:06:00,
2013-05-06 19:11:00,62.1,46.8,29.83,SW,233,0.0,0.0,57,0.00,,,0.31,WUHU216WMR968SP,2013-05-07 02:11:00,
2013-05-06 19:16:00,62.2,47.4,29.83,SSW,207,0.0,0.0,58,0.00,,,0.31,WUHU216WMR968SP,2013-05-07 02:16:00,
2013-05-06 19:21:00,62.2,47.8,29.83,SSW,203,0.0,0.0,59,0.00,,,0.31,WUHU216WMR968SP,2013-05-07 02:21:00,
2013-05-06 19:26:00,62.2,48.3,29.83,SE,132,0.0,0.0,60,0.00,,,0.31,WUHU216WMR968SP,2013-05-07 02:26:00,
2013-05-06 19:31:00,62.1,48.2,29.83,SSW,208,0.0,0.0,60,0.00,,,0.31,WUHU216WMR968SP,2013-05-07 02:31:00,
2013-05-06 19:36:00,62.1,48.6,29.83,SE,129,0.0,0.0,61,0.00,,,0.31,WUHU216WMR968SP,2013-05-07 02:36:00,
2013-05-06 19:41:00,61.9,48.4,29.83,SW,227,0.0,0.0,61,0.00,,,0.31,WUHU216WMR968SP,2013-05-07 02:41:00,
2013-05-06 19:46:00,61.9,48.9,29.83,WSW,247,0.0,0.0,62,0.00,,,0.31,WUHU216WMR968SP,2013-05-07 02:46:00,
2013-05-06 19:51:00,61.9,49.3,29.83,South,187,0.0,0.0,63,0.00,,,0.31,WUHU216WMR968SP,2013-05-07 02:51:00,
2013-05-06 19:56:00,61.7,49.1,29.83,West,266,0.0,0.0,63,0.00,,,0.31,WUHU216WMR968SP,2013-05-07 02:56:00,
2013-05-06 20:01:00,61.7,49.6,29.83,SSW,205,0.0,0.0,64,0.00,,,0.31,WUHU216WMR968SP,2013-05-07 03:01:00,
2013-05-06 20:06:00,61.7,49.6,29.86,ESE,110,0.0,0.0,64,0.00,,,0.31,WUHU216WMR968SP,2013-05-07 03:06:00,
2013-05-06 20:11:00,61.5,49.4,29.86,ESE,120,0.0,0.0,64,0.00,,,0.31,WUHU216WMR968SP,2013-05-07 03:11:00,
2013-05-06 20:16:00,61.3,49.2,29.86,ESE,120,0.0,0.0,64,0.00,,,0.31,WUHU216WMR968SP,2013-05-07 03:16:00,
2013-05-06 20:21:00,61.2,49.1,29.86,South,187,0.0,0.0,64,0.00,,,0.31,WUHU216WMR968SP,2013-05-07 03:21:00,
2013-05-06 20:26:00,61.0,48.9,29.86,South,178,0.0,0.0,64,0.00,,,0.31,WUHU216WMR968SP,2013-05-07 03:26:00,
2013-05-06 20:31:00,61.2,49.1,29.86,SSW,199,0.0,0.0,64,0.00,,,0.31,WUHU216WMR968SP,2013-05-07 03:31:00,
2013-05-06 20:36:00,61.2,49.1,29.86,SSW,195,0.0,0.0,64,0.00,,,0.31,WUHU216WMR968SP,2013-05-07 03:36:00,
2013-05-06 20:41:00,59.2,47.2,29.86,SSW,200,0.0,0.0,64,0.00,,,0.31,WUHU216WMR968SP,2013-05-07 03:41:00,
2013-05-06 20:46:00,61.3,48.7,29.86,SE,124,0.0,0.0,63,0.00,,,0.31,WUHU216WMR968SP,2013-05-07 03:46:00,
2013-05-06 20:51:00,61.2,48.7,29.86,East,91,0.0,0.0,63,0.00,,,0.31,WUHU216WMR968SP,2013-05-07 03:51:00,
2013-05-06 20:56:00,61.0,48.5,29.86,SSW,196,0.0,0.0,63,0.00,,,0.31,WUHU216WMR968SP,2013-05-07 03:56:00,
2013-05-06 21:01:00,61.0,48.5,29.86,East,97,0.0,0.0,63,0.00,,,0.31,WUHU216WMR968SP,2013-05-07 04:01:00,
2013-05-06 21:06:00,60.8,48.7,29.86,SSW,199,0.0,0.0,64,0.00,,,0.31,WUHU216WMR968SP,2013-05-07 04:06:00,
2013-05-06 21:11:00,60.6,48.5,29.86,SE,124,0.0,0.0,64,0.00,,,0.31,WUHU216WMR968SP,2013-05-07 04:11:00,
2013-05-06 21:16:00,60.4,48.3,29.86,SSE,162,0.0,0.0,64,0.00,,,0.31,WUHU216WMR968SP,2013-05-07 04:16:00,
2013-05-06 21:21:00,60.4,48.3,29.86,ESE,103,0.0,0.0,64,0.00,,,0.31,WUHU216WMR968SP,2013-05-07 04:21:00,
2013-05-06 21:26:00,60.3,48.2,29.86,SE,138,0.0,0.0,64,0.00,,,0.31,WUHU216WMR968SP,2013-05-07 04:26:00,
2013-05-06 21:31:00,60.3,48.6,29.86,East,98,0.0,0.0,65,0.00,,,0.31,WUHU216WMR968SP,2013-05-07 04:31:00,
2013-05-06 21:36:00,60.3,48.6,29.86,South,191,0.0,0.0,65,0.00,,,0.31,WUHU216WMR968SP,2013-05-07 04:36:00,
2013-05-06 21:41:00,60.1,48.4,29.86,SE,132,0.0,0.0,65,0.00,,,0.31,WUHU216WMR968SP,2013-05-07 04:41:00,
2013-05-06 21:46:00,60.1,48.4,29.86,SW,230,0.0,0.0,65,0.00,,,0.31,WUHU216WMR968SP,2013-05-07 04:46:00,
2013-05-06 21:51:00,60.1,48.4,29.86,SW,220,0.0,0.0,65,0.00,,,0.31,WUHU216WMR968SP,2013-05-07 04:51:00,
2013-05-06 21:56:00,60.1,48.4,29.86,SSW,200,0.0,0.0,65,0.00,,,0.31,WUHU216WMR968SP,2013-05-07 04:56:00,
2013-05-06 22:01:00,60.1,48.4,29.86,SSW,211,0.0,0.0,65,0.00,,,0.31,WUHU216WMR968SP,2013-05-07 05:01:00,
2013-05-06 22:06:00,60.1,48.4,29.86,SE,136,0.0,0.0,65,0.00,,,0.31,WUHU216WMR968SP,2013-05-07 05:06:00,
2013-05-06 22:11:00,60.1,48.4,29.86,SSW,192,0.0,0.0,65,0.00,,,0.31,WUHU216WMR968SP,2013-05-07 05:11:00,
2013-05-06 22:16:00,60.1,48.4,29.86,SE,141,0.0,0.0,65,0.00,,,0.31,WUHU216WMR968SP,2013-05-07 05:16:00,
2013-05-06 22:21:00,59.9,48.3,29.89,ESE,108,0.0,0.0,65,0.00,,,0.31,WUHU216WMR968SP,2013-05-07 05:21:00,
2013-05-06 22:26:00,59.9,48.3,29.89,ESE,121,0.0,0.0,65,0.00,,,0.31,WUHU216WMR968SP,2013-05-07 05:26:00,
2013-05-06 22:31:00,59.9,48.3,29.89,SSW,197,0.0,0.0,65,0.00,,,0.31,WUHU216WMR968SP,2013-05-07 05:31:00,
2013-05-06 22:36:00,59.9,48.3,29.89,ESE,122,0.0,0.0,65,0.00,,,0.31,WUHU216WMR968SP,2013-05-07 05:36:00,
2013-05-06 22:41:00,59.7,48.5,29.89,ESE,118,0.0,0.0,66,0.00,,,0.31,WUHU216WMR968SP,2013-05-07 05:41:00,
2013-05-06 22:46:00,59.7,48.5,29.89,ESE,121,0.0,0.0,66,0.00,,,0.31,WUHU216WMR968SP,2013-05-07 05:46:00,
2013-05-06 22:51:00,59.5,48.3,29.89,ESE,115,0.0,0.0,66,0.00,,,0.31,WUHU216WMR968SP,2013-05-07 05:51:00,
2013-05-06 22:56:00,59.5,48.3,29.89,South,181,0.0,0.0,66,0.00,,,0.31,WUHU216WMR968SP,2013-05-07 05:56:00,
2013-05-06 23:01:00,59.5,48.3,29.89,ESE,119,0.0,0.0,66,0.00,,,0.31,WUHU216WMR968SP,2013-05-07 06:01:00,
2013-05-06 23:06:00,59.5,48.3,29.89,South,187,0.0,0.0,66,0.00,,,0.31,WUHU216WMR968SP,2013-05-07 06:06:00,
2013-05-06 23:11:00,59.7,48.5,29.89,SSE,148,0.0,0.0,66,0.00,,,0.31,WUHU216WMR968SP,2013-05-07 06:11:00,
2013-05-06 23:16:00,59.7,48.5,29.89,SE,144,0.0,0.0,66,0.00,,,0.31,WUHU216WMR968SP,2013-05-07 06:16:00,
2013-05-06 23:21:00,59.7,48.5,29.89,SE,129,0.0,0.0,66,0.00,,,0.31,WUHU216WMR968SP,2013-05-07 06:21:00,
2013-05-06 23:26:00,59.7,48.5,29.89,SE,132,0.0,0.0,66,0.00,,,0.31,WUHU216WMR968SP,2013-05-07 06:26:00,
2013-05-06 23:31:00,59.7,48.5,29.89,SE,128,0.0,0.0,66,0.00,,,0.31,WUHU216WMR968SP,2013-05-07 06:31:00,
2013-05-06 23:36:00,59.7,48.5,29.89,SE,128,0.0,0.0,66,0.00,,,0.31,WUHU216WMR968SP,2013-05-07 06:36:00,
2013-05-06 23:41:00,59.7,48.9,29.89,SSE,150,0.0,0.0,67,0.00,,,0.31,WUHU216WMR968SP,2013-05-07 06:41:00,
2013-05-06 23:46:00,59.5,48.7,29.89,SE,146,0.0,0.0,67,0.00,,,0.31,WUHU216WMR968SP,2013-05-07 06:46:00,
2013-05-06 23:51:00,59.4,48.6,29.89,ESE,106,0.0,0.0,67,0.00,,,0.31,WUHU216WMR968SP,2013-05-07 06:51:00,
2013-05-06 23:56:00,59.4,48.6,29.89,ESE,123,0.0,0.0,67,0.00,,,0.31,WUHU216WMR968SP,2013-05-07 06:56:00,